When you browse on this site, cookies collect data to enhance your experience and personalize the content and advertising you see.
Visit our Privacy Policy to learn more. By continuing to use the site, you agree to this use of cookies and data.
  • En España
  • Lista de países
  • Para 7 días
  • Temperatura del agua
  • Mapa Satelital
  • El tiempo en el mapa
  • Informadores
  • user-avatar
    Iniciar sesión

    Tiempo cada hora Kerns

    Hoy, 22 Febrero, Viernes

    Tiempo Temperatura Precipitaciones Viento Presión Humedad
    00:00 +29°C° 0 mm 2 mps 753 mmHg 49%
    01:00 +28°C° 0 mm 3 mps 753 mmHg 45%
    02:00 +28°C° 0 mm 3 mps 753 mmHg 41%
    03:00 +27°C° 0 mm 3 mps 753 mmHg 37%
    04:00 +26°C° 0 mm 3 mps 753 mmHg 37%
    05:00 +26°C° 0 mm 3 mps 754 mmHg 38%
    06:00 +25°C° 0 mm 2 mps 754 mmHg 40%
    07:00 +25°C° 0 mm 2 mps 754 mmHg 41%
    08:00 +29°C° 0 mm 2 mps 754 mmHg 36%
    09:00 +32°C° 0 mm 2 mps 754 mmHg 31%
    10:00 +36°C° 0 mm 1 mps 754 mmHg 25%
    11:00 +38°C° 0 mm 2 mps 754 mmHg 24%
    12:00 +39°C° 0 mm 2 mps 754 mmHg 22%
    13:00 +40°C° 0 mm 3 mps 754 mmHg 21%
    14:00 +39°C° 0 mm 3 mps 754 mmHg 26%
    15:00 +39°C° 0 mm 3 mps 753 mmHg 30%
    16:00 +38°C° 0 mm 3 mps 753 mmHg 35%
    17:00 +35°C° 0 mm 3 mps 753 mmHg 51%
    18:00 +31°C° 0 mm 3 mps 754 mmHg 67%
    19:00 +29°C° 0 mm 3 mps 754 mmHg 82%
    20:00 +28°C° 0 mm 2 mps 754 mmHg 86%
    21:00 +28°C° 0 mm 2 mps 755 mmHg 90%
    22:00 +27°C° 0 mm 2 mps 756 mmHg 94%
    23:00 +27°C° 0 mm 2 mps 756 mmHg 95%

    Mañana, 23 Febrero, Sábado

    Tiempo Temperatura Precipitaciones Viento Presión Humedad
    00:00 +27°C° 0 mm 2 mps 756 mmHg 96%
    01:00 +27°C° 0 mm 2 mps 756 mmHg 97%
    02:00 +27°C° 0.1 mm 2 mps 755 mmHg 96%
    03:00 +27°C° 0.1 mm 2 mps 755 mmHg 95%
    04:00 +28°C° 0.1 mm 2 mps 755 mmHg 95%
    05:00 +28°C° 0.1 mm 2 mps 755 mmHg 94%
    06:00 +28°C° 0.1 mm 2 mps 756 mmHg 94%
    07:00 +28°C° 0.1 mm 1 mps 756 mmHg 94%
    08:00 +30°C° 0 mm 2 mps 756 mmHg 85%
    09:00 +31°C° 0 mm 2 mps 757 mmHg 75%
    10:00 +34°C° 0 mm 2 mps 757 mmHg 66%
    11:00 +35°C° 0 mm 3 mps 756 mmHg 61%
    12:00 +36°C° 0 mm 3 mps 756 mmHg 56%
    13:00 +36°C° 0 mm 3 mps 756 mmHg 51%
    14:00 +36°C° 0 mm 3 mps 755 mmHg 53%
    15:00 +35°C° 0 mm 3 mps 755 mmHg 56%
    16:00 +35°C° 0 mm 3 mps 755 mmHg 59%
    17:00 +33°C° 0 mm 3 mps 755 mmHg 68%
    18:00 +30°C° 0 mm 3 mps 756 mmHg 77%
    19:00 +29°C° 0 mm 3 mps 756 mmHg 86%
    20:00 +28°C° 0 mm 3 mps 757 mmHg 88%
    21:00 +28°C° 0 mm 3 mps 757 mmHg 91%
    22:00 +27°C° 0 mm 2 mps 758 mmHg 94%
    23:00 +27°C° 0.1 mm 2 mps 758 mmHg 94%

    Pasado mañana, 24 Febrero, Domingo

    Tiempo Temperatura Precipitaciones Viento Presión Humedad
    00:00 +27°C° 0.1 mm 2 mps 758 mmHg 94%
    01:00 +27°C° 0.1 mm 2 mps 757 mmHg 95%
    02:00 +27°C° 0.1 mm 2 mps 757 mmHg 95%
    03:00 +26°C° 0.1 mm 2 mps 757 mmHg 95%
    04:00 +26°C° 0.1 mm 2 mps 757 mmHg 96%
    05:00 +26°C° 0.1 mm 2 mps 757 mmHg 95%
    06:00 +27°C° 0.1 mm 2 mps 758 mmHg 94%
    07:00 +27°C° 0.1 mm 2 mps 758 mmHg 94%
    08:00 +28°C° 0.7 mm 2 mps 759 mmHg 85%
    09:00 +30°C° 0.7 mm 2 mps 759 mmHg 76%
    10:00 +33°C° 0.7 mm 3 mps 760 mmHg 67%
    11:00 +33°C° 0.5 mm 3 mps 759 mmHg 65%
    12:00 +33°C° 0.5 mm 3 mps 759 mmHg 64%
    13:00 +34°C° 0.5 mm 3 mps 758 mmHg 62%
    14:00 +34°C° 0 mm 3 mps 758 mmHg 60%
    15:00 +34°C° 0 mm 4 mps 757 mmHg 59%
    16:00 +34°C° 0 mm 4 mps 757 mmHg 57%
    17:00 +32°C° 0 mm 4 mps 757 mmHg 65%
    18:00 +30°C° 0 mm 4 mps 758 mmHg 73%
    19:00 +28°C° 0 mm 3 mps 759 mmHg 81%
    20:00 +28°C° 0 mm 3 mps 759 mmHg 83%
    21:00 +27°C° 0 mm 3 mps 760 mmHg 86%
    22:00 +26°C° 0 mm 3 mps 760 mmHg 89%
    23:00 +26°C° 0.1 mm 3 mps 760 mmHg 90%

    25 Febrero, Lunes

    Tiempo Temperatura Precipitaciones Viento Presión Humedad
    00:00 +26°C° 0.1 mm 3 mps 760 mmHg 92%
    01:00 +26°C° 0.1 mm 3 mps 759 mmHg 93%
    02:00 +26°C° 0.2 mm 3 mps 759 mmHg 93%
    03:00 +26°C° 0.2 mm 2 mps 759 mmHg 94%
    04:00 +26°C° 0.2 mm 2 mps 758 mmHg 94%
    05:00 +26°C° 0.1 mm 3 mps 759 mmHg 93%
    06:00 +26°C° 0.1 mm 3 mps 759 mmHg 93%
    07:00 +27°C° 0.1 mm 3 mps 760 mmHg 92%
    08:00 +28°C° 0.1 mm 3 mps 760 mmHg 85%
    09:00 +29°C° 0.1 mm 4 mps 760 mmHg 77%
    10:00 +32°C° 0.1 mm 5 mps 761 mmHg 69%
    11:00 +33°C° 0.1 mm 5 mps 760 mmHg 65%
    12:00 +34°C° 0.1 mm 5 mps 760 mmHg 61%
    13:00 +34°C° 0.1 mm 5 mps 759 mmHg 57%
    14:00 +34°C° 0.1 mm 5 mps 759 mmHg 59%
    15:00 +33°C° 0.1 mm 5 mps 758 mmHg 62%
    16:00 +33°C° 0.1 mm 5 mps 758 mmHg 65%
    17:00 +30°C° 0.1 mm 5 mps 758 mmHg 71%
    18:00 +29°C° 0.1 mm 4 mps 759 mmHg 77%
    19:00 +27°C° 0.1 mm 4 mps 759 mmHg 84%
    20:00 +27°C° 0 mm 4 mps 759 mmHg 86%
    21:00 +27°C° 0 mm 4 mps 760 mmHg 88%
    22:00 +26°C° 0 mm 4 mps 760 mmHg 90%
    23:00 +26°C° 0 mm 4 mps 760 mmHg 91%

    26 Febrero, Martes

    Tiempo Temperatura Precipitaciones Viento Presión Humedad
    00:00 +26°C° 0 mm 3 mps 759 mmHg 91%
    01:00 +25°C° 0 mm 3 mps 759 mmHg 92%
    02:00 +25°C° 0.1 mm 3 mps 759 mmHg 92%
    03:00 +25°C° 0.1 mm 3 mps 758 mmHg 92%
    04:00 +25°C° 0.1 mm 3 mps 758 mmHg 93%
    05:00 +26°C° 0.1 mm 3 mps 758 mmHg 92%
    06:00 +26°C° 0.1 mm 4 mps 759 mmHg 91%
    07:00 +26°C° 0.1 mm 4 mps 759 mmHg 91%
    08:00 +27°C° 0.1 mm 4 mps 759 mmHg 84%
    09:00 +29°C° 0.1 mm 4 mps 759 mmHg 78%
    10:00 +30°C° 0.1 mm 5 mps 759 mmHg 72%
    11:00 +32°C° 0.1 mm 5 mps 759 mmHg 67%
    12:00 +33°C° 0.1 mm 5 mps 758 mmHg 62%
    13:00 +34°C° 0.1 mm 5 mps 758 mmHg 57%
    14:00 +34°C° 0 mm 5 mps 757 mmHg 56%
    15:00 +34°C° 0 mm 5 mps 757 mmHg 54%
    16:00 +34°C° 0 mm 5 mps 757 mmHg 53%
    17:00 +32°C° 0 mm 5 mps 757 mmHg 59%
    18:00 +29°C° 0 mm 4 mps 757 mmHg 66%
    19:00 +27°C° 0 mm 4 mps 758 mmHg 73%
    20:00 +26°C° 0 mm 3 mps 758 mmHg 76%
    21:00 +26°C° 0 mm 3 mps 758 mmHg 78%
    22:00 +25°C° 0 mm 3 mps 759 mmHg 80%
    23:00 +25°C° 0 mm 3 mps 758 mmHg 81%

    27 Febrero, Miércoles

    Tiempo Temperatura Precipitaciones Viento Presión Humedad
    00:00 +25°C° 0 mm 3 mps 758 mmHg 82%
    01:00 +25°C° 0 mm 3 mps 758 mmHg 83%
    02:00 +24°C° 0 mm 3 mps 757 mmHg 86%
    03:00 +24°C° 0 mm 3 mps 757 mmHg 88%
    04:00 +24°C° 0 mm 3 mps 757 mmHg 90%
    05:00 +24°C° 0 mm 3 mps 757 mmHg 89%
    06:00 +25°C° 0 mm 3 mps 758 mmHg 89%
    07:00 +25°C° 0 mm 3 mps 758 mmHg 88%
    08:00 +27°C° 0 mm 3 mps 758 mmHg 79%
    09:00 +30°C° 0 mm 3 mps 758 mmHg 70%
    10:00 +33°C° 0 mm 3 mps 758 mmHg 61%
    11:00 +34°C° 0 mm 4 mps 758 mmHg 58%
    12:00 +34°C° 0 mm 4 mps 757 mmHg 56%
    13:00 +35°C° 0 mm 4 mps 756 mmHg 53%
    14:00 +35°C° 0.1 mm 4 mps 756 mmHg 54%
    15:00 +35°C° 0.1 mm 4 mps 756 mmHg 54%
    16:00 +34°C° 0.1 mm 4 mps 755 mmHg 54%
    17:00 +32°C° 0 mm 4 mps 756 mmHg 61%
    18:00 +30°C° 0 mm 3 mps 756 mmHg 68%
    19:00 +28°C° 0 mm 3 mps 756 mmHg 75%
    20:00 +27°C° 0 mm 3 mps 757 mmHg 77%
    21:00 +26°C° 0 mm 2 mps 757 mmHg 80%
    22:00 +26°C° 0 mm 2 mps 758 mmHg 82%
    23:00 +25°C° 0 mm 2 mps 758 mmHg 83%
    Mostrar más